Location: Camerons Lookout
(40.9833°S, 175.9333°E)
Time: 08:28:00
(UTC+00:00)

IRS-1A Rocket - Pass Details

Date: 14 January 2026
Orbit: 852 x 931 km, 98.9° (Epoch: 16 February)

Event Time Altitude Azimuth Distance (km) Brightness Sun altitude
Rises 09:58:23 0° 167° (SSE) 3,490 8.0 -19.0°
Reaches altitude 10° 10:00:46 10° 166° (SSE) 2,555 7.2 -19.3°
Maximum altitude 10:06:28 89° 82° (E) 901 4.2 -19.9°
Enters shadow 10:10:10 23° 345° (NNW) 1,796 5.5 -20.3°
